sat.trackr.live / text

‹ back to catalog

STARLINK-32594

NORAD 62302 · 2024-239B

PAYLOAD ACTIVE UNKNOWN

§ Identity

Operator
Country
US
Launch date
2024-12-13
Launch site
AFWTR
Launch vehicle
Mass (kg)
RCS (m²)

Purposes: comms

External: N2YO · Heavens-Above · Gunter

§ Orbital elements

Epoch: 2026-05-24T20:25:06.832128Z

Period
94.11 min
Inclination
53.1591°
Eccentricity
0.0001353
Mean motion
15.30203299 rev/d
Perigee alt
474.3 km
Apogee alt
476.1 km
Semi-major
6,853.3 km
B*
3.6694e-4
RAAN
197.9424°
Arg perigee
89.1274°
Mean anomaly
270.9882°
Rev number
8,107

§ Raw data

STARLINK-325941 62302U 24239B   26144.85077352  .00010525  00000+0  36694-3 0  99902 62302  53.1591 197.9424 0001353  89.1274 270.9882 15.30203299 81074

JSON: /api/v1/satellites/62302 · /tle

For live sub-satellite position, see the globe view (requires WebGL).

§ Visibility from observer

Set your observer location to see the next 7 days of passes ≥ 10°. The values pass through the URL so the page stays shareable.

No JS? Fill the form by hand. The geolocation button needs JavaScript.